Preview of NWS' New Version of Forecast
This preview is not operational and should not be used for support decisions.

Regional Weather Roundup (RWR)

Issued by National Weather Service (NWS)

                            
000
ASCA42 TJSJ 230610
RWRPR 
PUERTO RICO/U.S. VIRGIN ISLANDS HOURLY WEATHER ROUNDUP
NATIONAL WEATHER SERVICE SAN JUAN PR
200 AM AST THU MAY 23 2019

PRZ001>002-007>008-010-230700-
PUERTO RICO
  
CITY           SKY/WX    TMP DP  RH WIND       PRES   REMARKS
SAN JUAN LMM   PTCLDY    79  73  83 E3        29.95F                  
$$

VIZ001>002-230700-
U.S. VIRGIN ISLANDS
  
CITY           SKY/WX    TMP DP  RH WIND       PRES   REMARKS
CHARLOTTE AMA  CLEAR     81  70  69 E8        29.94F                  
CHRISTIANSTED  PTCLDY    79  73  83 E10       29.95F                  
$$

HOURLY WEATHER ROUNDUP FOR THE NEWS MEDIA
  
CITY           SKY/WX    TMP DP  RH WIND       PRES   REMARKS
ORLANDO        FAIR      73  66  78 E8        30.15F                  
NEW YORK       CLOUDY    61  49  64 SW9       30.21F                  
NEWARK         MOCLDY    64  44  48 SW10      30.20S                  
CHICAGO        CLOUDY    69  65  86 S8        29.82F                  
HARTFORD       FAIR      45  41  86 CALM      30.27F                  
BOSTON         CLOUDY    53  45  74 S9        30.26S                  
DALLAS         MOCLDY    80  73  79 S15G22    29.87S                  
PHILADELPHIA   FAIR      63  47  55 SW7       30.23S                  
LOS ANGELES    PTCLDY    58  48  69 E7        29.82R                  
WASHINGTON DC  MOCLDY    61  49  64 S5        30.20F